| time (UTC) | temp F | wind direction | speed MPH | gust MPH | rain 1hr in | rain 24hr in | rain mn in | humidity % | barometer mb |
| 20260903062504 | 77 | 258 | 1.0 | 2.0 | 0.00 | 0.00 | 0.00 | 84 | 1014.8 |
| 20260903062007 | 77 | 278 | 1.0 | 2.0 | 0.00 | 0.00 | 0.00 | 84 | 1014.7 |
| 20260903061604 | 77 | 278 | 1.0 | 2.0 | 0.00 | 0.00 | 0.00 | 84 | 1014.9 |
| 20260903061512 | 77 | 233 | 1.0 | 2.0 | 0.00 | 0.00 | 0.00 | 84 | 1014.8 |
| 20260903061008 | 77 | 286 | 1.0 | 2.0 | 0.00 | 0.00 | 0.00 | 84 | 1014.8 |
| 20260903060508 | 77 | 271 | 0.0 | 2.0 | 0.00 | 0.00 | 0.00 | 84 | 1014.8 |
| 20260903060146 | 77 | 294 | 1.0 | 2.0 | 0.00 | 0.00 | 0.00 | 84 | 1014.8 |
| 20260903060018 | 77 | 297 | 1.0 | 2.0 | 0.00 | 0.00 | 0.00 | 84 | 1014.7 |
| 20260903055509 | 77 | 282 | 1.0 | 2.0 | 0.00 | 0.00 | 0.00 | 84 | 1014.7 |
| 20260903055013 | 77 | 277 | 1.0 | 2.0 | 0.00 | 0.00 | 0.00 | 84 | 1014.7 |
| 20260903054600 | 77 | 257 | 1.0 | 2.0 | 0.00 | 0.00 | 0.00 | 85 | 1014.8 |
| 20260903054532 | 77 | 264 | 1.0 | 2.0 | 0.00 | 0.00 | 0.00 | 85 | 1014.7 |
| 20260903054010 | 77 | 286 | 0.0 | 2.0 | 0.00 | 0.00 | 0.00 | 85 | 1014.6 |
| 20260903053512 | 77 | 290 | 1.0 | 2.0 | 0.00 | 0.00 | 0.00 | 86 | 1014.7 |
| 20260903053102 | 77 | 292 | 1.0 | 2.0 | 0.00 | 0.00 | 0.00 | 86 | 1014.7 |
| 20260903053031 | 77 | 280 | 1.0 | 2.0 | 0.00 | 0.00 | 0.00 | 87 | 1014.5 |
| 20260903052513 | 76 | 234 | 0.0 | 2.0 | 0.00 | 0.00 | 0.00 | 87 | 1014.5 |
| 20260903052017 | 76 | 288 | 0.0 | 0.0 | 0.00 | 0.00 | 0.00 | 88 | 1014.6 |
| 20260903051609 | 77 | 0 | 0.0 | 0.0 | 0.00 | 0.00 | 0.00 | 88 | 1014.7 |
| 20260903051534 | 77 | 271 | 0.0 | 0.0 | 0.00 | 0.00 | 0.00 | 88 | 1014.6 |
| 20260903051003 | 77 | 274 | 0.0 | 0.0 | 0.00 | 0.00 | 0.00 | 88 | 1014.4 |
| 20260903050503 | 77 | 255 | 0.0 | 2.0 | 0.00 | 0.00 | 0.00 | 87 | 1014.4 |
| 20260903050105 | 77 | 0 | 0.0 | 2.0 | 0.00 | 0.00 | 0.00 | 87 | 1014.7 |
| 20260903050016 | 77 | 279 | 0.0 | 2.0 | 0.00 | 0.00 | 0.00 | 87 | 1014.6 |
| 20260903045507 | 77 | 277 | 0.0 | 1.0 | 0.00 | 0.00 | 0.00 | 88 | 1014.5 |
| 20260903045006 | 77 | 280 | 0.0 | 1.0 | 0.00 | 0.00 | 0.00 | 87 | 1014.3 |
| 20260903044604 | 77 | 283 | 0.0 | 3.0 | 0.00 | 0.00 | 0.00 | 87 | 1014.6 |
| 20260903044521 | 77 | 282 | 0.0 | 2.0 | 0.00 | 0.00 | 0.00 | 87 | 1014.4 |
| 20260903044010 | 78 | 282 | 0.0 | 3.0 | 0.00 | 0.00 | 0.00 | 87 | 1014.4 |
| 20260903043514 | 78 | 281 | 1.0 | 3.0 | 0.00 | 0.00 | 0.00 | 87 | 1014.4 |
| 20260903043057 | 77 | 0 | 0.0 | 0.0 | 0.00 | 0.00 | 0.00 | 87 | 1014.5 |
| 20260903043029 | 77 | 274 | 0.0 | 0.0 | 0.00 | 0.00 | 0.00 | 87 | 1014.2 |
| 20260903042511 | 77 | 266 | 0.0 | 0.0 | 0.00 | 0.00 | 0.00 | 88 | 1014.2 |
| 20260903042013 | 77 | 259 | 0.0 | 1.0 | 0.00 | 0.00 | 0.00 | 88 | 1014.3 |
| 20260903041602 | 77 | 0 | 0.0 | 1.0 | 0.00 | 0.00 | 0.00 | 89 | 1014.4 |
| 20260903041532 | 77 | 244 | 0.0 | 1.0 | 0.00 | 0.00 | 0.00 | 89 | 1014.4 |
| 20260903041014 | 77 | 185 | 0.0 | 1.0 | 0.00 | 0.00 | 0.00 | 89 | 1014.3 |
| 20260903040517 | 77 | 262 | 0.0 | 1.0 | 0.00 | 0.00 | 0.00 | 90 | 1014.3 |
| 20260903040108 | 77 | 310 | 0.0 | 1.0 | 0.00 | 0.00 | 0.00 | 90 | 1014.4 |
| 20260903040011 | 77 | 319 | 0.0 | 1.0 | 0.00 | 0.00 | 0.00 | 90 | 1014.4 |
| 20260903035504 | 77 | 193 | 0.0 | 0.0 | 0.00 | 0.00 | 0.00 | 90 | 1014.4 |
| 20260903035005 | 77 | 192 | 0.0 | 0.0 | 0.00 | 0.00 | 0.00 | 90 | 1014.3 |
| 20260903034601 | 77 | 0 | 0.0 | 0.0 | 0.00 | 0.00 | 0.00 | 90 | 1014.4 |
| 20260903034517 | 77 | 195 | 0.0 | 0.0 | 0.00 | 0.00 | 0.00 | 90 | 1014.3 |
| 20260903034008 | 77 | 251 | 0.0 | 0.0 | 0.00 | 0.00 | 0.00 | 90 | 1014.3 |
| 20260903033507 | 77 | 207 | 0.0 | 1.0 | 0.00 | 0.00 | 0.00 | 90 | 1014.3 |
| 20260903033103 | 78 | 0 | 0.0 | 1.0 | 0.00 | 0.00 | 0.00 | 90 | 1014.4 |
| 20260903033031 | 78 | 196 | 0.0 | 1.0 | 0.00 | 0.00 | 0.00 | 90 | 1014.2 |
| 20260903032509 | 78 | 258 | 0.0 | 1.0 | 0.00 | 0.00 | 0.00 | 90 | 1014.4 |
| 20260903032014 | 78 | 259 | 0.0 | 1.0 | 0.00 | 0.00 | 0.00 | 90 | 1014.4 |
| 20260903031559 | 78 | 0 | 0.0 | 1.0 | 0.00 | 0.00 | 0.00 | 91 | 1014.4 |
| 20260903031532 | 78 | 260 | 0.0 | 1.0 | 0.00 | 0.00 | 0.00 | 91 | 1014.3 |
| 20260903031013 | 78 | 160 | 0.0 | 0.0 | 0.00 | 0.00 | 0.00 | 91 | 1014.2 |
| 20260903030517 | 78 | 233 | 0.0 | 0.0 | 0.00 | 0.00 | 0.00 | 92 | 1014.2 |
| 20260903030106 | 78 | 0 | 0.0 | 0.0 | 0.00 | 0.00 | 0.00 | 92 | 1014.4 |
| 20260903030032 | 78 | 233 | 0.0 | 0.0 | 0.00 | 0.00 | 0.00 | 92 | 1014.2 |
| 20260903025518 | 78 | 233 | 0.0 | 0.0 | 0.00 | 0.00 | 0.00 | 92 | 1014.2 |
| 20260903025016 | 78 | 233 | 0.0 | 0.0 | 0.00 | 0.00 | 0.00 | 92 | 1014.2 |
| 20260903024604 | 78 | 0 | 0.0 | 0.0 | 0.00 | 0.00 | 0.00 | 92 | 1014.4 |
| 20260903024509 | 78 | 233 | 0.0 | 0.0 | 0.00 | 0.00 | 0.00 | 92 | 1014.2 |
| 20260903024004 | 78 | 233 | 0.0 | 0.0 | 0.00 | 0.00 | 0.00 | 92 | 1014.3 |
| 20260903023507 | 78 | 257 | 0.0 | 0.0 | 0.00 | 0.00 | 0.00 | 92 | 1014.2 |
| 20260903023109 | 78 | 0 | 0.0 | 0.0 | 0.00 | 0.00 | 0.00 | 92 | 1014.5 |
| 20260903023021 | 78 | 257 | 0.0 | 0.0 | 0.00 | 0.00 | 0.00 | 92 | 1014.2 |
| 20260903022508 | 78 | 257 | 0.0 | 0.0 | 0.00 | 0.00 | 0.00 | 92 | 1014.2 |
| 20260903022011 | 78 | 257 | 0.0 | 0.0 | 0.00 | 0.00 | 0.00 | 92 | 1014.2 |
| 20260903021609 | 78 | 0 | 0.0 | 0.0 | 0.00 | 0.00 | 0.00 | 92 | 1014.5 |
| 20260903021534 | 78 | 257 | 0.0 | 0.0 | 0.00 | 0.00 | 0.00 | 92 | 1014.2 |
| 20260903021016 | 78 | 257 | 0.0 | 0.0 | 0.00 | 0.00 | 0.00 | 92 | 1014.2 |
| 20260903020513 | 79 | 257 | 0.0 | 0.0 | 0.00 | 0.00 | 0.00 | 92 | 1014.2 |
| 20260903020105 | 79 | 0 | 0.0 | 0.0 | 0.00 | 0.00 | 0.00 | 91 | 1014.4 |
| 20260903020031 | 79 | 257 | 0.0 | 0.0 | 0.00 | 0.00 | 0.00 | 91 | 1014.2 |
| 20260903015516 | 79 | 257 | 0.0 | 0.0 | 0.00 | 0.00 | 0.00 | 92 | 1014.2 |
| 20260903015014 | 79 | 257 | 0.0 | 0.0 | 0.00 | 0.00 | 0.00 | 92 | 1014.1 |
| 20260903014609 | 79 | 0 | 0.0 | 0.0 | 0.00 | 0.00 | 0.00 | 92 | 1014.4 |
| 20260903014535 | 79 | 257 | 0.0 | 0.0 | 0.00 | 0.00 | 0.00 | 92 | 1014.1 |
| 20260903014018 | 79 | 255 | 0.0 | 0.0 | 0.00 | 0.00 | 0.00 | 91 | 1014.1 |
| 20260903013519 | 80 | 255 | 0.0 | 0.0 | 0.00 | 0.00 | 0.00 | 91 | 1014.0 |
| 20260903013109 | 80 | 0 | 0.0 | 0.0 | 0.00 | 0.00 | 0.00 | 91 | 1014.2 |
| 20260903013014 | 80 | 255 | 0.0 | 0.0 | 0.00 | 0.00 | 0.00 | 91 | 1014.0 |
| 20260903012508 | 80 | 255 | 0.0 | 0.0 | 0.00 | 0.00 | 0.00 | 90 | 1014.0 |
| 20260903012009 | 80 | 255 | 0.0 | 0.0 | 0.00 | 0.00 | 0.00 | 90 | 1014.0 |
| 20260903011604 | 81 | 0 | 0.0 | 0.0 | 0.00 | 0.00 | 0.00 | 90 | 1014.1 |
| 20260903011521 | 81 | 255 | 0.0 | 0.0 | 0.00 | 0.00 | 0.00 | 90 | 1014.0 |
| 20260903011007 | 81 | 255 | 0.0 | 0.0 | 0.00 | 0.00 | 0.00 | 89 | 1013.9 |
| 20260903010513 | 81 | 255 | 0.0 | 0.0 | 0.00 | 0.00 | 0.00 | 89 | 1013.9 |
| 20260903010107 | 82 | 0 | 0.0 | 0.0 | 0.00 | 0.00 | 0.00 | 88 | 1014.1 |
| 20260903010026 | 82 | 255 | 0.0 | 0.0 | 0.00 | 0.00 | 0.00 | 88 | 1013.8 |
| 20260903005512 | 82 | 255 | 0.0 | 0.0 | 0.00 | 0.00 | 0.00 | 87 | 1013.9 |
| 20260903005012 | 83 | 255 | 0.0 | 0.0 | 0.00 | 0.00 | 0.00 | 86 | 1013.9 |
| 20260903004604 | 83 | 0 | 0.0 | 0.0 | 0.00 | 0.00 | 0.00 | 85 | 1014.0 |
| 20260903004536 | 83 | 255 | 0.0 | 0.0 | 0.00 | 0.00 | 0.00 | 85 | 1013.8 |
| 20260903004014 | 84 | 255 | 0.0 | 0.0 | 0.00 | 0.00 | 0.00 | 84 | 1013.8 |
| 20260903003517 | 85 | 255 | 0.0 | 0.0 | 0.00 | 0.00 | 0.00 | 83 | 1013.8 |
| 20260903003110 | 86 | 0 | 0.0 | 0.0 | 0.00 | 0.00 | 0.00 | 81 | 1014.0 |
| 20260903003032 | 86 | 255 | 0.0 | 0.0 | 0.00 | 0.00 | 0.00 | 81 | 1013.7 |
| 20260903002517 | 87 | 255 | 0.0 | 0.0 | 0.00 | 0.00 | 0.00 | 80 | 1013.8 |
| 20260903002018 | 88 | 255 | 0.0 | 0.0 | 0.00 | 0.00 | 0.00 | 77 | 1013.9 |
| 20260903001622 | 89 | 0 | 0.0 | 0.0 | 0.00 | 0.00 | 0.00 | 75 | 1014.1 |
| 20260903001517 | 89 | 255 | 0.0 | 0.0 | 0.00 | 0.00 | 0.00 | 75 | 1014.0 |
| 20260903001008 | 90 | 255 | 0.0 | 0.0 | 0.00 | 0.00 | 0.00 | 73 | 1013.9 |
| 20260903000510 | 91 | 255 | 0.0 | 0.0 | 0.00 | 0.00 | 0.00 | 71 | 1013.9 |
| 20260903000108 | 92 | 0 | 0.0 | 0.0 | 0.00 | 0.00 | 0.00 | 70 | 1014.1 |
| 20260903000021 | 92 | 255 | 0.0 | 0.0 | 0.00 | 0.00 | 0.00 | 70 | 1013.9 |
| 20260902235510 | 93 | 255 | 0.0 | 0.0 | 0.00 | 0.00 | 0.00 | 69 | 1013.9 |
| 20260902235016 | 93 | 255 | 0.0 | 0.0 | 0.00 | 0.00 | 0.00 | 68 | 1013.9 |
| 20260902234627 | 94 | 0 | 0.0 | 0.0 | 0.00 | 0.00 | 0.00 | 67 | 1014.1 |
| 20260902234527 | 94 | 255 | 0.0 | 0.0 | 0.00 | 0.00 | 0.00 | 67 | 1014.0 |
| 20260902234016 | 94 | 255 | 0.0 | 0.0 | 0.00 | 0.00 | 0.00 | 66 | 1013.9 |
| 20260902233516 | 94 | 255 | 0.0 | 0.0 | 0.00 | 0.00 | 0.00 | 66 | 1014.0 |
| 20260902233104 | 94 | 0 | 0.0 | 0.0 | 0.00 | 0.00 | 0.00 | 66 | 1014.2 |
| 20260902233032 | 94 | 255 | 0.0 | 0.0 | 0.00 | 0.00 | 0.00 | 66 | 1014.0 |
| 20260902232520 | 94 | 255 | 0.0 | 0.0 | 0.00 | 0.00 | 0.00 | 66 | 1014.0 |
| 20260902232017 | 94 | 255 | 0.0 | 0.0 | 0.00 | 0.00 | 0.00 | 66 | 1014.0 |
| 20260902231625 | 93 | 0 | 0.0 | 0.0 | 0.00 | 0.00 | 0.00 | 65 | 1014.2 |
| 20260902231532 | 93 | 255 | 0.0 | 0.0 | 0.00 | 0.00 | 0.00 | 65 | 1013.9 |
| 20260902231021 | 94 | 255 | 0.0 | 0.0 | 0.00 | 0.00 | 0.00 | 64 | 1014.0 |
| 20260902230518 | 94 | 255 | 0.0 | 0.0 | 0.00 | 0.00 | 0.00 | 64 | 1014.0 |
| 20260902230115 | 94 | 0 | 0.0 | 0.0 | 0.00 | 0.00 | 0.00 | 65 | 1014.3 |
| 20260902230016 | 94 | 267 | 0.0 | 0.0 | 0.00 | 0.00 | 0.00 | 65 | 1014.0 |
| 20260902225510 | 94 | 267 | 0.0 | 0.0 | 0.00 | 0.00 | 0.00 | 64 | 1014.0 |
| 20260902225012 | 93 | 272 | 0.0 | 0.0 | 0.00 | 0.00 | 0.00 | 65 | 1014.0 |
| 20260902224606 | 93 | 0 | 0.0 | 1.0 | 0.00 | 0.00 | 0.00 | 65 | 1014.3 |
| 20260902224526 | 93 | 271 | 0.0 | 1.0 | 0.00 | 0.00 | 0.00 | 65 | 1014.1 |
| 20260902224011 | 93 | 231 | 0.0 | 1.0 | 0.00 | 0.00 | 0.00 | 63 | 1014.1 |
| 20260902223512 | 93 | 262 | 0.0 | 3.0 | 0.00 | 0.00 | 0.00 | 63 | 1014.1 |
| 20260902223105 | 93 | 275 | 1.0 | 3.0 | 0.00 | 0.00 | 0.00 | 63 | 1014.4 |
| 20260902223030 | 93 | 274 | 1.0 | 3.0 | 0.00 | 0.00 | 0.00 | 62 | 1014.1 |
| 20260902222513 | 93 | 274 | 1.0 | 3.0 | 0.00 | 0.00 | 0.00 | 64 | 1014.2 |
| 20260902222016 | 93 | 265 | 1.0 | 3.0 | 0.00 | 0.00 | 0.00 | 63 | 1014.1 |
| 20260902221605 | 93 | 0 | 1.0 | 4.0 | 0.00 | 0.00 | 0.00 | 64 | 1014.3 |
| 20260902221531 | 93 | 285 | 1.0 | 4.0 | 0.00 | 0.00 | 0.00 | 64 | 1014.1 |
| 20260902221019 | 93 | 278 | 2.0 | 4.0 | 0.00 | 0.00 | 0.00 | 61 | 1014.1 |
| 20260902220519 | 93 | 285 | 2.0 | 4.0 | 0.00 | 0.00 | 0.00 | 62 | 1014.2 |
| 20260902220113 | 93 | 276 | 1.0 | 4.0 | 0.00 | 0.00 | 0.00 | 63 | 1014.5 |
| 20260902220036 | 93 | 251 | 1.0 | 4.0 | 0.00 | 0.00 | 0.00 | 63 | 1014.2 |
| 20260902215520 | 93 | 240 | 1.0 | 4.0 | 0.00 | 0.00 | 0.00 | 62 | 1014.1 |
| 20260902215016 | 93 | 213 | 1.0 | 5.0 | 0.00 | 0.00 | 0.00 | 62 | 1014.2 |
| 20260902214614 | 93 | 297 | 2.0 | 5.0 | 0.00 | 0.00 | 0.00 | 61 | 1014.5 |
| 20260902214528 | 93 | 281 | 3.0 | 5.0 | 0.00 | 0.00 | 0.00 | 61 | 1014.2 |
| 20260902214012 | 93 | 271 | 1.0 | 5.0 | 0.00 | 0.00 | 0.00 | 62 | 1014.2 |
| 20260902213511 | 93 | 278 | 2.0 | 5.0 | 0.00 | 0.00 | 0.00 | 62 | 1014.2 |
| 20260902213101 | 93 | 293 | 1.0 | 5.0 | 0.00 | 0.00 | 0.00 | 64 | 1014.5 |
| 20260902213030 | 93 | 259 | 1.0 | 4.0 | 0.00 | 0.00 | 0.00 | 64 | 1014.3 |
| 20260902212512 | 93 | 293 | 2.0 | 5.0 | 0.00 | 0.00 | 0.00 | 62 | 1014.3 |
| 20260902212013 | 93 | 302 | 2.0 | 5.0 | 0.00 | 0.00 | 0.00 | 62 | 1014.3 |
| 20260902211604 | 93 | 261 | 2.0 | 4.0 | 0.00 | 0.00 | 0.00 | 62 | 1014.6 |
| 20260902211530 | 93 | 282 | 2.0 | 4.0 | 0.00 | 0.00 | 0.00 | 61 | 1014.4 |
| 20260902211017 | 93 | 201 | 2.0 | 6.0 | 0.00 | 0.00 | 0.00 | 61 | 1014.4 |
| 20260902210514 | 93 | 306 | 3.0 | 6.0 | 0.00 | 0.00 | 0.00 | 62 | 1014.4 |
| 20260902210103 | 93 | 255 | 2.0 | 6.0 | 0.00 | 0.00 | 0.00 | 62 | 1014.6 |
| 20260902210049 | 93 | 304 | 2.0 | 6.0 | 0.00 | 0.00 | 0.00 | 62 | 1014.4 |
| 20260902205521 | 93 | 278 | 3.0 | 6.0 | 0.00 | 0.00 | 0.00 | 62 | 1014.4 |
| 20260902205016 | 93 | 287 | 2.0 | 5.0 | 0.00 | 0.00 | 0.00 | 60 | 1014.5 |
| 20260902204608 | 93 | 291 | 3.0 | 7.0 | 0.00 | 0.00 | 0.00 | 62 | 1014.8 |
| 20260902204535 | 93 | 281 | 3.0 | 7.0 | 0.00 | 0.00 | 0.00 | 61 | 1014.5 |
| 20260902204008 | 93 | 290 | 3.0 | 7.0 | 0.00 | 0.00 | 0.00 | 61 | 1014.5 |
| 20260902203508 | 93 | 290 | 2.0 | 8.0 | 0.00 | 0.00 | 0.00 | 63 | 1014.6 |
| 20260902203100 | 93 | 313 | 4.0 | 8.0 | 0.00 | 0.00 | 0.00 | 61 | 1014.7 |
| 20260902203024 | 93 | 240 | 4.0 | 8.0 | 0.00 | 0.00 | 0.00 | 61 | 1014.6 |
| 20260902202512 | 93 | 267 | 3.0 | 8.0 | 0.00 | 0.00 | 0.00 | 63 | 1014.6 |
| 20260902202014 | 93 | 283 | 3.0 | 6.0 | 0.00 | 0.00 | 0.00 | 62 | 1014.6 |
| 20260902201605 | 93 | 274 | 3.0 | 5.0 | 0.00 | 0.00 | 0.00 | 61 | 1014.8 |
| 20260902201504 | 93 | 298 | 3.0 | 5.0 | 0.00 | 0.00 | 0.00 | 61 | 1014.6 |
| 20260902201004 | 93 | 271 | 2.0 | 6.0 | 0.00 | 0.00 | 0.00 | 63 | 1014.7 |
| 20260902200505 | 93 | 252 | 2.0 | 6.0 | 0.00 | 0.00 | 0.00 | 63 | 1014.8 |
| 20260902200109 | 93 | 245 | 2.0 | 5.0 | 0.00 | 0.00 | 0.00 | 64 | 1014.9 |
| 20260902200013 | 93 | 278 | 2.0 | 5.0 | 0.00 | 0.00 | 0.00 | 63 | 1014.8 |
| 20260902195504 | 93 | 266 | 2.0 | 6.0 | 0.00 | 0.00 | 0.00 | 66 | 1014.9 |
| 20260902195004 | 93 | 263 | 2.0 | 6.0 | 0.00 | 0.00 | 0.00 | 63 | 1015.0 |
| 20260902194603 | 93 | 267 | 2.0 | 4.0 | 0.00 | 0.00 | 0.00 | 62 | 1015.1 |
| 20260902194515 | 93 | 298 | 2.0 | 4.0 | 0.00 | 0.00 | 0.00 | 60 | 1015.0 |
| 20260902194005 | 93 | 284 | 2.0 | 4.0 | 0.00 | 0.00 | 0.00 | 64 | 1015.0 |
| 20260902193508 | 93 | 289 | 2.0 | 5.0 | 0.00 | 0.00 | 0.00 | 65 | 1015.1 |
| 20260902193105 | 93 | 283 | 3.0 | 6.0 | 0.00 | 0.00 | 0.00 | 64 | 1015.3 |
| 20260902193019 | 93 | 274 | 3.0 | 6.0 | 0.00 | 0.00 | 0.00 | 61 | 1015.1 |
| 20260902192510 | 93 | 277 | 3.0 | 6.0 | 0.00 | 0.00 | 0.00 | 62 | 1015.2 |
| 20260902192011 | 93 | 280 | 3.0 | 7.0 | 0.00 | 0.00 | 0.00 | 64 | 1015.3 |
| 20260902191605 | 93 | 257 | 4.0 | 7.0 | 0.00 | 0.00 | 0.00 | 62 | 1015.3 |
| 20260902191529 | 93 | 264 | 4.0 | 7.0 | 0.00 | 0.00 | 0.00 | 61 | 1015.3 |
| 20260902191011 | 93 | 270 | 3.0 | 7.0 | 0.00 | 0.00 | 0.00 | 61 | 1015.3 |
| 20260902190513 | 93 | 258 | 3.0 | 7.0 | 0.00 | 0.00 | 0.00 | 63 | 1015.4 |
| 20260902190105 | 93 | 269 | 3.0 | 11.0 | 0.00 | 0.00 | 0.00 | 65 | 1015.7 |
| 20260902190006 | 93 | 233 | 3.0 | 11.0 | 0.00 | 0.00 | 0.00 | 64 | 1015.4 |
| 20260902185504 | 93 | 257 | 1.0 | 11.0 | 0.00 | 0.00 | 0.00 | 67 | 1015.5 |
| 20260902185004 | 92 | 297 | 5.0 | 9.0 | 0.00 | 0.00 | 0.00 | 61 | 1015.5 |
| 20260902184657 | 92 | 298 | 3.0 | 8.0 | 0.00 | 0.00 | 0.00 | 64 | 1015.7 |
| 20260902184518 | 92 | 287 | 3.0 | 8.0 | 0.00 | 0.00 | 0.00 | 64 | 1015.4 |
| 20260902184003 | 92 | 262 | 3.0 | 9.0 | 0.00 | 0.00 | 0.00 | 64 | 1015.5 |
| 20260902183504 | 92 | 285 | 4.0 | 9.0 | 0.00 | 0.00 | 0.00 | 62 | 1015.4 |
| 20260902183105 | 92 | 295 | 3.0 | 7.0 | 0.00 | 0.00 | 0.00 | 64 | 1015.7 |
| 20260902183018 | 92 | 293 | 3.0 | 7.0 | 0.00 | 0.00 | 0.00 | 66 | 1015.5 |
| 20260902182509 | 92 | 311 | 3.0 | 9.0 | 0.00 | 0.00 | 0.00 | 66 | 1015.5 |
| 20260902182007 | 92 | 298 | 4.0 | 9.0 | 0.00 | 0.00 | 0.00 | 64 | 1015.5 |
| 20260902181605 | 91 | 292 | 4.0 | 9.0 | 0.00 | 0.00 | 0.00 | 62 | 1015.6 |
| 20260902181520 | 91 | 297 | 5.0 | 9.0 | 0.00 | 0.00 | 0.00 | 64 | 1015.6 |
| 20260902181009 | 91 | 271 | 4.0 | 10.0 | 0.00 | 0.00 | 0.00 | 64 | 1015.7 |
| 20260902180511 | 91 | 292 | 5.0 | 10.0 | 0.00 | 0.00 | 0.00 | 63 | 1015.8 |
| 20260902180109 | 92 | 288 | 3.0 | 7.0 | 0.00 | 0.00 | 0.00 | 65 | 1015.8 |
| 20260902180024 | 92 | 277 | 3.0 | 7.0 | 0.00 | 0.00 | 0.00 | 66 | 1015.8 |
| 20260902175512 | 92 | 281 | 3.0 | 5.0 | 0.00 | 0.00 | 0.00 | 68 | 1015.7 |
| 20260902175015 | 92 | 240 | 2.0 | 6.0 | 0.00 | 0.00 | 0.00 | 68 | 1015.7 |
| 20260902174607 | 91 | 285 | 3.0 | 6.0 | 0.00 | 0.00 | 0.00 | 68 | 1015.7 |
| 20260902174507 | 91 | 280 | 3.0 | 6.0 | 0.00 | 0.00 | 0.00 | 68 | 1015.6 |
| 20260902174004 | 91 | 236 | 4.0 | 10.0 | 0.00 | 0.00 | 0.00 | 67 | 1015.7 |
| 20260902173505 | 91 | 293 | 3.0 | 10.0 | 0.00 | 0.00 | 0.00 | 68 | 1015.7 |
| 20260902173104 | 91 | 272 | 3.0 | 7.0 | 0.00 | 0.00 | 0.00 | 67 | 1015.9 |
| 20260902173010 | 90 | 247 | 3.0 | 7.0 | 0.00 | 0.00 | 0.00 | 68 | 1015.7 |
| 20260902172504 | 90 | 293 | 4.0 | 7.0 | 0.00 | 0.00 | 0.00 | 68 | 1015.7 |
| 20260902172006 | 90 | 272 | 4.0 | 7.0 | 0.00 | 0.00 | 0.00 | 68 | 1015.8 |
| 20260902171609 | 90 | 278 | 4.0 | 8.0 | 0.00 | 0.00 | 0.00 | 68 | 1015.9 |
| 20260902171521 | 90 | 246 | 4.0 | 8.0 | 0.00 | 0.00 | 0.00 | 67 | 1015.7 |
| 20260902171007 | 90 | 280 | 3.0 | 8.0 | 0.00 | 0.00 | 0.00 | 69 | 1015.8 |
| 20260902170508 | 90 | 257 | 4.0 | 6.0 | 0.00 | 0.00 | 0.00 | 69 | 1015.8 |
| 20260902170022 | 89 | 279 | 2.0 | 6.0 | 0.00 | 0.00 | 0.00 | 72 | 1015.9 |
| 20260902165513 | 89 | 256 | 3.0 | 6.0 | 0.00 | 0.00 | 0.00 | 71 | 1016.0 |
| 20260902165011 | 89 | 288 | 4.0 | 6.0 | 0.00 | 0.00 | 0.00 | 71 | 1016.0 |
| 20260902164603 | 89 | 281 | 2.0 | 5.0 | 0.00 | 0.00 | 0.00 | 72 | 1016.0 |
| 20260902164530 | 88 | 242 | 2.0 | 5.0 | 0.00 | 0.00 | 0.00 | 73 | 1016.0 |
| 20260902164015 | 88 | 283 | 3.0 | 5.0 | 0.00 | 0.00 | 0.00 | 71 | 1016.1 |
| 20260902163514 | 88 | 242 | 2.0 | 5.0 | 0.00 | 0.00 | 0.00 | 73 | 1016.2 |
| 20260902163100 | 87 | 281 | 2.0 | 6.0 | 0.00 | 0.00 | 0.00 | 72 | 1016.1 |
| 20260902163007 | 87 | 268 | 2.0 | 6.0 | 0.00 | 0.00 | 0.00 | 72 | 1016.2 |
| 20260902162504 | 87 | 290 | 4.0 | 7.0 | 0.00 | 0.00 | 0.00 | 70 | 1016.0 |
| 20260902162005 | 87 | 279 | 4.0 | 8.0 | 0.00 | 0.00 | 0.00 | 70 | 1016.2 |
| 20260902161611 | 87 | 287 | 4.0 | 9.0 | 0.00 | 0.00 | 0.00 | 70 | 1016.1 |
| 20260902161518 | 88 | 288 | 4.0 | 9.0 | 0.00 | 0.00 | 0.00 | 70 | 1016.2 |
| 20260902161013 | 87 | 300 | 4.0 | 9.0 | 0.00 | 0.00 | 0.00 | 71 | 1016.2 |
| 20260902160509 | 87 | 300 | 5.0 | 9.0 | 0.00 | 0.00 | 0.00 | 71 | 1016.2 |
| 20260902160059 | 87 | 233 | 4.0 | 7.0 | 0.00 | 0.00 | 0.00 | 72 | 1016.2 |
| 20260902160020 | 87 | 271 | 4.0 | 7.0 | 0.00 | 0.00 | 0.00 | 72 | 1016.2 |
| 20260902155509 | 86 | 265 | 3.0 | 7.0 | 0.00 | 0.00 | 0.00 | 73 | 1016.2 |
| 20260902155014 | 86 | 288 | 4.0 | 7.0 | 0.00 | 0.00 | 0.00 | 72 | 1016.2 |
| 20260902154602 | 86 | 290 | 4.0 | 8.0 | 0.00 | 0.00 | 0.00 | 73 | 1016.2 |
| 20260902154526 | 86 | 257 | 4.0 | 8.0 | 0.00 | 0.00 | 0.00 | 72 | 1016.2 |
| 20260902154011 | 86 | 283 | 4.0 | 8.0 | 0.00 | 0.00 | 0.00 | 71 | 1016.2 |
| 20260902153511 | 86 | 285 | 5.0 | 9.0 | 0.00 | 0.00 | 0.00 | 72 | 1016.2 |
| 20260902153114 | 86 | 278 | 4.0 | 9.0 | 0.00 | 0.00 | 0.00 | 73 | 1016.2 |
| 20260902153029 | 85 | 287 | 4.0 | 9.0 | 0.00 | 0.00 | 0.00 | 73 | 1016.2 |
| 20260902152515 | 85 | 288 | 4.0 | 8.0 | 0.00 | 0.00 | 0.00 | 73 | 1016.1 |
| 20260902152017 | 85 | 286 | 4.0 | 9.0 | 0.00 | 0.00 | 0.00 | 72 | 1016.0 |
| 20260902151603 | 85 | 297 | 3.0 | 9.0 | 0.00 | 0.00 | 0.00 | 73 | 1015.9 |
| 20260902151510 | 85 | 285 | 3.0 | 9.0 | 0.00 | 0.00 | 0.00 | 74 | 1016.0 |
| 20260902151004 | 84 | 231 | 4.0 | 9.0 | 0.00 | 0.00 | 0.00 | 75 | 1016.0 |
| 20260902150508 | 84 | 278 | 4.0 | 9.0 | 0.00 | 0.00 | 0.00 | 74 | 1016.0 |
| 20260902150015 | 84 | 259 | 4.0 | 9.0 | 0.00 | 0.00 | 0.00 | 76 | 1016.0 |
| 20260902145507 | 84 | 301 | 3.0 | 6.0 | 0.00 | 0.00 | 0.00 | 75 | 1016.0 |
| 20260902145008 | 84 | 269 | 3.0 | 6.0 | 0.00 | 0.00 | 0.00 | 75 | 1015.9 |
| 20260902144622 | 84 | 292 | 4.0 | 7.0 | 0.00 | 0.00 | 0.00 | 75 | 1015.9 |
| 20260902144531 | 84 | 289 | 4.0 | 7.0 | 0.00 | 0.00 | 0.00 | 76 | 1015.9 |
| 20260902144011 | 83 | 281 | 3.0 | 7.0 | 0.00 | 0.00 | 0.00 | 77 | 1015.9 |
| 20260902143509 | 83 | 290 | 4.0 | 7.0 | 0.00 | 0.00 | 0.00 | 76 | 1015.9 |
| 20260902143113 | 83 | 296 | 4.0 | 7.0 | 0.00 | 0.00 | 0.00 | 76 | 1015.9 |
| 20260902143025 | 83 | 283 | 4.0 | 7.0 | 0.00 | 0.00 | 0.00 | 76 | 1015.8 |
| 20260902142514 | 83 | 290 | 4.0 | 6.0 | 0.00 | 0.00 | 0.00 | 77 | 1015.8 |
| 20260902142014 | 83 | 274 | 3.0 | 6.0 | 0.00 | 0.00 | 0.00 | 78 | 1015.9 |
| 20260902141601 | 82 | 281 | 3.0 | 6.0 | 0.00 | 0.00 | 0.00 | 78 | 1015.8 |
| 20260902141536 | 82 | 266 | 3.0 | 6.0 | 0.00 | 0.00 | 0.00 | 78 | 1015.7 |
| 20260902141016 | 82 | 282 | 3.0 | 6.0 | 0.00 | 0.00 | 0.00 | 78 | 1015.9 |
| 20260902140516 | 82 | 253 | 3.0 | 6.0 | 0.00 | 0.00 | 0.00 | 79 | 1015.9 |
| 20260902140012 | 81 | 268 | 3.0 | 7.0 | 0.00 | 0.00 | 0.00 | 78 | 1016.0 |
| 20260902135508 | 81 | 311 | 3.0 | 7.0 | 0.00 | 0.00 | 0.00 | 78 | 1015.9 |
| 20260902135007 | 81 | 310 | 3.0 | 7.0 | 0.00 | 0.00 | 0.00 | 78 | 1015.9 |
| 20260902134603 | 81 | 280 | 3.0 | 6.0 | 0.00 | 0.00 | 0.00 | 79 | 1016.0 |
| 20260902134518 | 81 | 264 | 3.0 | 6.0 | 0.00 | 0.00 | 0.00 | 79 | 1015.9 |
| 20260902134007 | 80 | 267 | 3.0 | 6.0 | 0.00 | 0.00 | 0.00 | 80 | 1015.9 |
| 20260902133513 | 80 | 269 | 3.0 | 6.0 | 0.00 | 0.00 | 0.00 | 79 | 1016.0 |
| 20260902133101 | 80 | 290 | 3.0 | 5.0 | 0.00 | 0.00 | 0.00 | 79 | 1016.1 |
| 20260902133024 | 80 | 271 | 3.0 | 5.0 | 0.00 | 0.00 | 0.00 | 79 | 1016.1 |
| 20260902132516 | 80 | 280 | 3.0 | 5.0 | 0.00 | 0.00 | 0.00 | 79 | 1016.2 |
| 20260902132011 | 79 | 289 | 2.0 | 3.0 | 0.00 | 0.00 | 0.00 | 81 | 1016.2 |
| 20260902131600 | 79 | 278 | 1.0 | 4.0 | 0.00 | 0.00 | 0.00 | 82 | 1016.1 |
| 20260902131542 | 79 | 281 | 1.0 | 4.0 | 0.00 | 0.00 | 0.00 | 82 | 1016.1 |
| 20260902131013 | 79 | 288 | 2.0 | 4.0 | 0.00 | 0.00 | 0.00 | 83 | 1016.0 |
| 20260902130520 | 78 | 295 | 1.0 | 3.0 | 0.00 | 0.00 | 0.00 | 83 | 1016.1 |
| 20260902130100 | 78 | 281 | 1.0 | 4.0 | 0.00 | 0.00 | 0.00 | 84 | 1016.1 |
| 20260902130028 | 78 | 281 | 1.0 | 3.0 | 0.00 | 0.00 | 0.00 | 84 | 1016.2 |
| 20260902125517 | 78 | 295 | 2.0 | 4.0 | 0.00 | 0.00 | 0.00 | 84 | 1016.0 |
| 20260902125017 | 77 | 256 | 1.0 | 4.0 | 0.00 | 0.00 | 0.00 | 84 | 1016.1 |
| 20260902124610 | 77 | 274 | 1.0 | 3.0 | 0.00 | 0.00 | 0.00 | 84 | 1016.1 |
| 20260902124513 | 77 | 281 | 1.0 | 3.0 | 0.00 | 0.00 | 0.00 | 85 | 1016.0 |
| 20260902124006 | 77 | 240 | 1.0 | 3.0 | 0.00 | 0.00 | 0.00 | 85 | 1016.0 |
| 20260902123508 | 76 | 287 | 1.0 | 3.0 | 0.00 | 0.00 | 0.00 | 85 | 1016.0 |
| 20260902123104 | 76 | 246 | 2.0 | 3.0 | 0.00 | 0.00 | 0.00 | 85 | 1016.1 |
| 20260902123019 | 76 | 287 | 2.0 | 3.0 | 0.00 | 0.00 | 0.00 | 85 | 1016.1 |
| 20260902122511 | 76 | 290 | 1.0 | 3.0 | 0.00 | 0.00 | 0.00 | 85 | 1016.1 |
| 20260902122011 | 76 | 259 | 1.0 | 3.0 | 0.00 | 0.00 | 0.00 | 85 | 1016.1 |
| 20260902121612 | 75 | 270 | 1.0 | 3.0 | 0.00 | 0.00 | 0.00 | 86 | 1016.2 |
| 20260902121527 | 75 | 252 | 1.0 | 3.0 | 0.00 | 0.00 | 0.00 | 86 | 1016.2 |
| 20260902121011 | 75 | 274 | 1.0 | 3.0 | 0.00 | 0.00 | 0.00 | 86 | 1016.2 |
| 20260902120515 | 75 | 252 | 1.0 | 3.0 | 0.00 | 0.00 | 0.00 | 86 | 1016.1 |
| 20260902120111 | 75 | 241 | 1.0 | 3.0 | 0.00 | 0.00 | 0.00 | 87 | 1016.1 |
| 20260902120036 | 75 | 261 | 1.0 | 3.0 | 0.00 | 0.00 | 0.00 | 87 | 1016.0 |
| 20260902115514 | 74 | 285 | 1.0 | 3.0 | 0.00 | 0.00 | 0.00 | 87 | 1016.1 |
| 20260902115017 | 74 | 278 | 1.0 | 3.0 | 0.00 | 0.00 | 0.00 | 87 | 1016.0 |
| 20260902114618 | 74 | 293 | 1.0 | 3.0 | 0.00 | 0.00 | 0.00 | 87 | 1016.1 |
| 20260902114534 | 74 | 281 | 1.0 | 3.0 | 0.00 | 0.00 | 0.00 | 87 | 1016.2 |
| 20260902114006 | 74 | 238 | 1.0 | 3.0 | 0.00 | 0.00 | 0.00 | 88 | 1016.0 |
| 20260902113503 | 74 | 238 | 1.0 | 3.0 | 0.00 | 0.00 | 0.00 | 88 | 1016.0 |
| 20260902113102 | 74 | 217 | 1.0 | 3.0 | 0.00 | 0.00 | 0.00 | 88 | 1016.0 |
| 20260902113018 | 74 | 283 | 1.0 | 3.0 | 0.00 | 0.00 | 0.00 | 88 | 1016.0 |
| 20260902112510 | 74 | 195 | 1.0 | 4.0 | 0.00 | 0.00 | 0.00 | 88 | 1016.0 |
| 20260902112009 | 74 | 287 | 1.0 | 4.0 | 0.00 | 0.00 | 0.00 | 88 | 1016.0 |
| 20260902111605 | 74 | 303 | 1.0 | 3.0 | 0.00 | 0.00 | 0.00 | 88 | 1016.0 |
| 20260902111518 | 74 | 285 | 1.0 | 3.0 | 0.00 | 0.00 | 0.00 | 88 | 1016.0 |
| 20260902111006 | 74 | 276 | 1.0 | 4.0 | 0.00 | 0.00 | 0.00 | 88 | 1015.9 |
| 20260902110506 | 74 | 269 | 1.0 | 4.0 | 0.00 | 0.00 | 0.00 | 88 | 1015.8 |
| 20260902110114 | 74 | 311 | 0.0 | 3.0 | 0.00 | 0.00 | 0.00 | 88 | 1015.7 |
| 20260902110017 | 74 | 288 | 0.0 | 3.0 | 0.00 | 0.00 | 0.00 | 88 | 1015.8 |
| 20260902105509 | 74 | 321 | 1.0 | 3.0 | 0.00 | 0.00 | 0.00 | 88 | 1015.6 |
| 20260902105006 | 74 | 306 | 0.0 | 3.0 | 0.00 | 0.00 | 0.00 | 88 | 1015.7 |
| 20260902104604 | 74 | 283 | 1.0 | 4.0 | 0.00 | 0.00 | 0.00 | 88 | 1015.6 |
| 20260902104514 | 74 | 257 | 1.0 | 4.0 | 0.00 | 0.00 | 0.00 | 88 | 1015.7 |
| 20260902104004 | 74 | 249 | 1.0 | 4.0 | 0.00 | 0.00 | 0.00 | 88 | 1015.6 |
| 20260902103503 | 73 | 260 | 1.0 | 5.0 | 0.00 | 0.00 | 0.00 | 88 | 1015.8 |
| 20260902103120 | 73 | 272 | 1.0 | 5.0 | 0.00 | 0.00 | 0.00 | 88 | 1015.7 |
| 20260902103013 | 73 | 279 | 1.0 | 5.0 | 0.00 | 0.00 | 0.00 | 88 | 1015.8 |
| 20260902102506 | 73 | 276 | 1.0 | 3.0 | 0.00 | 0.00 | 0.00 | 88 | 1015.8 |
| 20260902102007 | 73 | 275 | 1.0 | 2.0 | 0.00 | 0.00 | 0.00 | 88 | 1015.7 |
| 20260902101600 | 73 | 252 | 1.0 | 3.0 | 0.00 | 0.00 | 0.00 | 88 | 1015.7 |
| 20260902101518 | 73 | 261 | 1.0 | 2.0 | 0.00 | 0.00 | 0.00 | 88 | 1015.7 |
| 20260902101006 | 73 | 289 | 0.0 | 3.0 | 0.00 | 0.00 | 0.00 | 88 | 1015.9 |
| 20260902100508 | 73 | 283 | 1.0 | 3.0 | 0.00 | 0.00 | 0.00 | 88 | 1015.8 |
| 20260902100104 | 73 | 281 | 1.0 | 2.0 | 0.00 | 0.00 | 0.00 | 88 | 1015.8 |
| 20260902100018 | 73 | 243 | 1.0 | 2.0 | 0.00 | 0.00 | 0.00 | 88 | 1015.7 |
| 20260902095510 | 73 | 295 | 1.0 | 3.0 | 0.00 | 0.00 | 0.00 | 88 | 1015.7 |
| 20260902095005 | 73 | 283 | 0.0 | 3.0 | 0.00 | 0.00 | 0.00 | 87 | 1015.7 |
| 20260902094602 | 74 | 278 | 1.0 | 3.0 | 0.00 | 0.00 | 0.00 | 87 | 1015.8 |
| 20260902094518 | 74 | 286 | 1.0 | 3.0 | 0.00 | 0.00 | 0.00 | 87 | 1015.8 |
| 20260902094012 | 74 | 277 | 1.0 | 2.0 | 0.00 | 0.00 | 0.00 | 87 | 1015.8 |
| 20260902093508 | 74 | 291 | 1.0 | 2.0 | 0.00 | 0.00 | 0.00 | 87 | 1015.7 |
| 20260902093111 | 74 | 247 | 1.0 | 3.0 | 0.00 | 0.00 | 0.00 | 87 | 1015.7 |
| 20260902093009 | 74 | 281 | 1.0 | 3.0 | 0.00 | 0.00 | 0.00 | 87 | 1015.7 |
| 20260902092504 | 74 | 258 | 1.0 | 3.0 | 0.00 | 0.00 | 0.00 | 87 | 1015.5 |
| 20260902092004 | 74 | 271 | 1.0 | 3.0 | 0.00 | 0.00 | 0.00 | 87 | 1015.5 |
| 20260902091559 | 74 | 270 | 1.0 | 2.0 | 0.00 | 0.00 | 0.00 | 87 | 1015.6 |
| 20260902091533 | 74 | 266 | 1.0 | 2.0 | 0.00 | 0.00 | 0.00 | 87 | 1015.6 |
| 20260902091007 | 74 | 250 | 1.0 | 2.0 | 0.00 | 0.00 | 0.00 | 87 | 1015.7 |
| 20260902090511 | 74 | 279 | 1.0 | 2.0 | 0.00 | 0.00 | 0.00 | 87 | 1015.5 |
| 20260902090020 | 74 | 306 | 1.0 | 3.0 | 0.00 | 0.00 | 0.00 | 87 | 1015.4 |
| 20260902085509 | 73 | 244 | 1.0 | 3.0 | 0.00 | 0.00 | 0.00 | 87 | 1015.4 |
| 20260902085009 | 73 | 278 | 1.0 | 3.0 | 0.00 | 0.00 | 0.00 | 87 | 1015.3 |
| 20260902084601 | 73 | 260 | 1.0 | 2.0 | 0.00 | 0.00 | 0.00 | 88 | 1015.4 |
| 20260902084517 | 73 | 278 | 1.0 | 2.0 | 0.00 | 0.00 | 0.00 | 88 | 1015.3 |
| 20260902084010 | 73 | 282 | 1.0 | 2.0 | 0.00 | 0.00 | 0.00 | 87 | 1015.4 |
| 20260902083509 | 73 | 289 | 1.0 | 2.0 | 0.00 | 0.00 | 0.00 | 87 | 1015.3 |
| 20260902083059 | 74 | 0 | 0.0 | 2.0 | 0.00 | 0.00 | 0.00 | 87 | 1015.4 |
| 20260902083021 | 74 | 306 | 0.0 | 2.0 | 0.00 | 0.00 | 0.00 | 87 | 1015.4 |
| 20260902082506 | 74 | 263 | 0.0 | 3.0 | 0.00 | 0.00 | 0.00 | 87 | 1015.3 |
| 20260902082008 | 74 | 283 | 1.0 | 3.0 | 0.00 | 0.00 | 0.00 | 86 | 1015.3 |
| 20260902081559 | 74 | 0 | 1.0 | 3.0 | 0.00 | 0.00 | 0.00 | 86 | 1015.4 |
| 20260902081524 | 74 | 281 | 1.0 | 3.0 | 0.00 | 0.00 | 0.00 | 86 | 1015.4 |
| 20260902081006 | 74 | 273 | 1.0 | 3.0 | 0.00 | 0.00 | 0.00 | 86 | 1015.4 |
| 20260902080508 | 74 | 284 | 1.0 | 3.0 | 0.00 | 0.00 | 0.00 | 86 | 1015.3 |
| 20260902080100 | 74 | 280 | 0.0 | 3.0 | 0.00 | 0.00 | 0.00 | 86 | 1015.4 |
| 20260902080018 | 74 | 290 | 0.0 | 3.0 | 0.00 | 0.00 | 0.00 | 85 | 1015.3 |
| 20260902075507 | 74 | 266 | 1.0 | 3.0 | 0.00 | 0.00 | 0.00 | 85 | 1015.4 |
| 20260902075008 | 74 | 268 | 1.0 | 4.0 | 0.00 | 0.00 | 0.00 | 85 | 1015.4 |
| 20260902074612 | 74 | 274 | 1.0 | 4.0 | 0.00 | 0.00 | 0.00 | 85 | 1015.3 |
| 20260902074528 | 74 | 265 | 1.0 | 4.0 | 0.00 | 0.00 | 0.00 | 85 | 1015.4 |
| 20260902074012 | 74 | 303 | 1.0 | 3.0 | 0.00 | 0.00 | 0.00 | 85 | 1015.4 |
| 20260902073515 | 74 | 290 | 1.0 | 3.0 | 0.00 | 0.00 | 0.00 | 86 | 1015.5 |
| 20260902073104 | 74 | 278 | 1.0 | 2.0 | 0.00 | 0.00 | 0.00 | 86 | 1015.3 |
| 20260902073024 | 74 | 316 | 1.0 | 2.0 | 0.00 | 0.00 | 0.00 | 86 | 1015.3 |
| 20260902072510 | 74 | 285 | 1.0 | 2.0 | 0.00 | 0.00 | 0.00 | 86 | 1015.4 |
| 20260902072009 | 74 | 288 | 0.0 | 2.0 | 0.00 | 0.00 | 0.00 | 86 | 1015.4 |
| 20260902071604 | 74 | 281 | 0.0 | 2.0 | 0.00 | 0.00 | 0.00 | 86 | 1015.5 |
| 20260902071546 | 74 | 311 | 0.0 | 2.0 | 0.00 | 0.00 | 0.00 | 86 | 1015.5 |
| 20260902071014 | 74 | 267 | 0.0 | 1.0 | 0.00 | 0.00 | 0.00 | 86 | 1015.6 |
| 20260902070505 | 75 | 284 | 0.0 | 1.0 | 0.00 | 0.00 | 0.00 | 86 | 1015.6 |
| 20260902070103 | 75 | 288 | 0.0 | 2.0 | 0.00 | 0.00 | 0.00 | 86 | 1015.6 |
| 20260902070015 | 75 | 293 | 1.0 | 2.0 | 0.00 | 0.00 | 0.00 | 86 | 1015.7 |
| 20260902065511 | 75 | 281 | 0.0 | 2.0 | 0.00 | 0.00 | 0.00 | 86 | 1015.7 |
| 20260902065008 | 75 | 285 | 1.0 | 2.0 | 0.00 | 0.00 | 0.00 | 85 | 1015.6 |
| 20260902064602 | 75 | 288 | 0.0 | 3.0 | 0.00 | 0.00 | 0.00 | 85 | 1015.6 |
| 20260902064523 | 75 | 278 | 0.0 | 3.0 | 0.00 | 0.00 | 0.00 | 85 | 1015.6 |
| 20260902064012 | 75 | 285 | 0.0 | 3.0 | 0.00 | 0.00 | 0.00 | 85 | 1015.7 |
| 20260902063510 | 75 | 274 | 1.0 | 2.0 | 0.00 | 0.00 | 0.00 | 85 | 1015.8 |
| 20260902063059 | 75 | 264 | 1.0 | 2.0 | 0.00 | 0.00 | 0.00 | 85 | 1015.7 |
| 20260902063027 | 75 | 278 | 1.0 | 2.0 | 0.00 | 0.00 | 0.00 | 85 | 1015.7 |